Preview of NWS' New Version of Forecast
This preview is not operational and should not be used for support decisions.

Regional Weather Roundup (RWR)

Issued by San Diego, CA (SGX)

                            
698 
ASUS46 KSGX 212311
RWRSGX

SAN DIEGO HOURLY WEATHER ROUNDUP
NATIONAL WEATHER SERVICE SAN DIEGO CA
400 PM PDT THU JUN 21 2018

NOTE: "FAIR" INDICATES FEW OR NO CLOUDS BELOW 12,000 FEET WITH NO 
SIGNIFICANT WEATHER AND/OR OBSTRUCTIONS TO VISIBILITY.

CAZ042-043-060-061-PZZ750-775-220000-

GREATER SAN DIEGO AREA
  
CITY           SKY/WX    TMP DP  RH WIND       PRES   REMARKS
SAN DIEGO AP   PTSUNNY   68  59  73 SW10      29.95F                  
NATIONAL CITY    N/A     68  61  77 SW6       29.95S                  
CHULA VISTA      N/A     68  61  78 W7        29.85F                  
IMPERIAL BEACH PTSUNNY   68  58  70 W12       29.94F                  
BROWN FIELD    SUNNY     71  59  65 NW8       29.92F                  
MIRAMAR MCAS   MOSUNNY   76  58  53 SW9       29.92F                  
MONTGOMERY FLD MOSUNNY   71  58  63 W12G17    29.93F                  
GILLESPIE FLD  SUNNY     77  59  53 SW13      29.91F                  

$$

NORTH SAN DIEGO COUNTY
  
CITY           SKY/WX    TMP DP  RH WIND       PRES   REMARKS
CAMP PENDLETON SUNNY     71  61  70 SW10G18   29.91F                  
OCEANSIDE AP   MOSUNNY   70  59  68 SW9       29.91F                  
OCEANSIDE HBR    N/A     67  61  81 SW3       29.95F                  
VISTA            N/A     71  62  72 SW3       29.89F                  
CARLSBAD       CLOUDY    66  59  78 W8        29.92F                  
DEL MAR          N/A     69  62  78 SW5       29.94F                  
LA JOLLA SCRIP   N/A     65  61  88 W7        29.93F                  
FALLBROOK        N/A     77  63  62 SW5       29.90F                  
ESCONDIDO        N/A     81  63  54 W7        29.90F                  
SAN MARCOS       N/A     71  62  73 W7        29.95F                  
POWAY            N/A     81  63  53 SW5       29.89F                  

$$

EAST SAN DIEGO COUNTY
  
CITY           SKY/WX    TMP DP  RH WIND       PRES   REMARKS
RAMONA         SUNNY     85  59  41 W13       29.92F                  
SANTEE LAKES     N/A     76  62  61 SW9       29.89F                  
LA MESA          N/A     73  61  65 CALM      29.86F                  
JAMUL            N/A     78  63  59 CALM      29.89F                  
CAMPO            N/A     91  55  29 SW15      29.91F                  

$$

ORANGE COUNTY AND THE LOS ANGELES BASIN
  
CITY           SKY/WX    TMP DP  RH WIND       PRES   REMARKS
JOHN WAYNE AP  MOSUNNY   72  59  63 SW10G20   29.91F                  
LAGUNA BEACH     N/A     69  63  80 CALM      29.87F                  
LAKE FOREST FR   N/A     84  60  44 W2        29.78F                  
HUNTINGTON BCH   N/A     72  64  76 SW5       29.92F                  
LOS ALAMITOS   MOSUNNY   72  61  67 S10       29.90F                  
FULLERTON      SUNNY     78  61  55 SW8       29.89F                  
LONG BEACH     SUNNY     72  61  68 S9        29.90F                  
L.A. AP        MOSUNNY   71  60  68 W13       29.91F                  
L.A. DOWNTOWN  SUNNY     76  61  59 VRB3      29.89F                  

$$

THE INLAND EMPIRE
  
CITY           SKY/WX    TMP DP  RH WIND       PRES   REMARKS
CORONA         SUNNY     86  63  45 W16       29.87F                  
CHINO          SUNNY     91  58  32 SW15G28   29.89F                  
ONTARIO        SUNNY     90  59  35 W16       29.88F                  
SAN BERNARDINO SUNNY     97  46  17 SW7       29.88F                  
RIVERSIDE AP   SUNNY     91  57  31 W12G20    29.87F                  
MORENO VALLEY    N/A     97  56  25 W7        28.03S HX  95           
MARCH ARB      SUNNY     93  54  26 NW14      29.90F                  
HORSETHIEF CYN   N/A     90  53  28 NE9       29.86F                  
PERRIS           N/A     93  57  29 NW7         N/A                   
HEMET EAST       N/A     97  52  21 W3        29.79F                  
FRENCH VALLEY  FAIR      86  57  37 SW10      29.91S                  
TEMECULA         N/A     89  60  37 SW5       29.94F                  

$$

SAN BERNARDINO AND RIVERSIDE COUNTY MOUNTAINS
  
CITY           SKY/WX    TMP DP  RH WIND       PRES   REMARKS
BIG BEAR AP    SUNNY     81  32  17 W13G21    30.25S                  
ANGELUS OAKS     N/A     85  46  25 CALM      29.73F                  

$$

SOUTHERN DESERT INCLUDING THE COACHELLA VALLEY
  
CITY           SKY/WX    TMP DP  RH WIND       PRES   REMARKS
PALM SPRINGS   SUNNY    107  44  12 E8        29.76F HX 102           
THOUSAND PALMS   N/A    106  49  14 SE6       29.71F HX 102           
PALM DESERT      N/A    106  46  13 E1        27.27S HX 102           
THERMAL        SUNNY    107  46  13 S6        29.70F HX 103           
BLYTHE         SUNNY    109  36   8 S14       29.74F HX 102           
IMPERIAL AP    SUNNY    106  49  14 SE5       29.71F HX 103           
EL CENTRO NAS  SUNNY    106  40  10 E7        29.73F HX 100           
YUMA AZ        SUNNY    107  36   8 S8        29.74F HX 100           
MEXICALI       SUNNY    104  34   9 SE5       29.74F HX  97           

$$

UPPER DESERT
  
CITY           SKY/WX    TMP DP  RH WIND       PRES   REMARKS
VICTORVILLE AP SUNNY    N/A N/A N/A W9        29.91F                  
APPLE VALLEY     N/A    100  47  16 N10       29.78S HX  97           
PALMDALE       SUNNY    103  39  11 W21       29.91F HX  97           
LANCASTER      SUNNY    101  40  12 SW21      29.90S HX  96           
EDWARDS AFB    SUNNY    106  29   7 SW18G31   29.85S HX  98           
DAGGETT        SUNNY    110  16   3 W14G21    29.80F HX 101           
29 PALMS N     SUNNY    108  20   4 S7        29.89F HX  99           
NEEDLES        SUNNY    115  23   4 SW15G31   29.74F HX 105           

$$

REGIONAL REPORTS
  
CITY           SKY/WX    TMP DP  RH WIND       PRES   REMARKS
SANTA BARBARA  SUNNY     66  57  72 W9        29.92F                  
SANDBERG         N/A     90  37  15 N16       30.12F                  
LAS VEGAS NV   MOSUNNY  113  20   4 SW9       29.77F HX 104           
PHOENIX AZ     SUNNY    109  28   6 W15G25    29.76F HX 101           
TIJUANA        SUNNY     72  59  64 NW10      29.94F                  
ENSENADA NW      N/A     65  32  29 CALM      29.88F                  

$$

OFFSHORE ISLANDS
  
CITY           SKY/WX    TMP DP  RH WIND       PRES   REMARKS
CATALINA ARPT  SUNNY     70  60  70 VRB5      29.95F                  
SAN CLEMENTE I PTSUNNY   65  60  84 W7        29.94F                  
SAN NICOLAS IS PTSUNNY   66  58  75 NW9       29.94F FOG              

$$

MARINE AND OFFSHORE BUOY REPORTS
  
STATION/POSITION SKY/WX   TEMP    WIND        PRES    VSBY  SWELL
                          AIR SEA DIR/SP/G                  HT/PER/DIR
                          (F)     (DEG/KT/KT) (MB)    (MI)  (FT/S/D)
TANNER BANKS               57 59              1013.7F
S CLEMENTE BASIN           61 66  260/  6/  8 1013.6F         5/280/ 8
SAN NICOLAS IS.               58                N/A           3/190/14
SO. S. ROSA ISLA           55 58  310/ 16/ 19 1014.3F         5/310/ 8
W. S. BARBARA CH              56  300/ 19/ 23 1013.3
M. S. BARBARA CH           59 61  270/  8/ 10 1013.8
S. MONICA BASIN            63 66  260/  8/ 10 1013.2
S PEDRO CHANNEL               67                N/A           2/260/11
CMP PENDLETON NS              70                N/A           2/220/14
OCEANSIDE OFFSHR              70                N/A           2/190/14
TORREY PINES OTR              69                N/A           2/240/11
SAN DIEGO BAY                 67              1013.3F
POINT LOMA SOUTH              66                N/A           2/210/13

$$